Meteo Giornale » Osservazioni meteo Italia » Messina

ore: 00:55 - Osservazioni Meteo Messina
Lat. 38° 12' N Lon. 15° 33' E Alt. 59 metri s.l.m.

nuvoloso Europe/Rome

16 °C

Nuvoloso

Temp. 24 Ore

15 °C

20 °C

Sud-Ovest

18.5 Km/h

Dew point 14 °C

Umidità 87 %

Visibilità  10 Km

Il sole sorge alle ore 06:03

Il sole tramonta alle ore 19:46

Data e Ora Cielo e Fenomeni T °C DP °C Um. % Pres. hPa Vis. km Vento km/h
Oggi h: 00:55 nuvoloso Nuvoloso 16 14 87 1016 10 SO 18.5
Ieri h: 23:55 poco_nuvoloso Poco Nuvoloso 16 14 87 1016 10 SO 18.5
Ieri h: 22:55 sereno Sereno 17 15 88 1016 10 SO 22.2
Ieri h: 21:55 poco_nuvoloso Poco Nuvoloso 17 13 77 1016 10 SO 18.5
Ieri h: 20:55 poco_nuvoloso Poco Nuvoloso 17 14 82 1016 10 SO 16.7
Ieri h: 19:55 poco_nuvoloso Poco Nuvoloso 17 15 88 1015 10 SO 20.3
Ieri h: 18:55 poco_nuvoloso Poco Nuvoloso 17 17 100 1015 10 SO 22.2
Ieri h: 17:55 poco_nuvoloso Poco Nuvoloso 19 16 82 1015 10 S/SO 25.9
Ieri h: 16:55 poco_nuvoloso Poco Nuvoloso 20 14 68 1015 10 SO 24
Ieri h: 15:55 poco_nuvoloso Poco Nuvoloso 19 15 77 1015 10 SO 24
Ieri h: 14:55 poco_nuvoloso Poco Nuvoloso 19 16 82 1016 10 S/SO 27.8
Ieri h: 13:55 poco_nuvoloso Poco Nuvoloso 19 15 77 1016 10 S/SO 29.6
Ieri h: 12:55 poco_nuvoloso Poco Nuvoloso 19 15 77 1016 10 S/SO 27.8
Ieri h: 11:55 poco_nuvoloso Poco Nuvoloso 19 15 77 1016 10 S/SO 24
Ieri h: 09:55 nuvoloso Nuvoloso 18 14 77 1016 10 S/SO 25.9
Ieri h: 08:55 poco_nuvoloso Poco Nuvoloso 17 13 77 1016 10 S/SO 24
Ieri h: 07:55 poco_nuvoloso Poco Nuvoloso 16 14 87 1016 10 SO 22.2
Ieri h: 06:55 poco_nuvoloso Poco Nuvoloso 15 14 93 1016 10 S/SO 20.3
Ieri h: 05:55 nuvoloso Nuvoloso 15 15 100 1016 10 SO 22.2
Ieri h: 04:55 nuvoloso Nuvoloso 15 15 100 1016 10 SO 24
Ieri h: 03:55 nuvoloso Nuvoloso 15 15 100 1016 10 SO 25.9
Ieri h: 02:55 nuvoloso Nuvoloso 16 15 93 1016 10 SO 22.2
Ieri h: 01:55 nuvoloso Nuvoloso 16 15 93 1017 10 S/SO 22.2